TimeEET,TemperatureF,Dew PointF,Humidity,Sea Level PressureIn,VisibilityMPH,Wind Direction,Wind SpeedMPH,Gust SpeedMPH,PrecipitationIn,Events,Conditions,WindDirDegrees,DateUTC
12:50 AM,46.4,42.8,87,29.77,4.3,WNW,6.9,-,N/A,Rain,Light Rain,300,2013-02-21 22:50:00
1:50 AM,44.6,42.8,93,29.77,4.3,West,4.6,-,N/A,Rain,Light Rain,280,2013-02-21 23:50:00
2:50 AM,44.6,41.0,87,29.74,4.3,West,11.5,-,N/A,Rain,Light Rain,270,2013-02-22 00:50:00
3:50 AM,44.6,41.0,87,29.71,4.3,West,11.5,-,N/A,Rain,Light Rain,270,2013-02-22 01:50:00
4:50 AM,44.6,41.0,87,29.71,3.7,West,12.7,-,N/A,Rain,Light Rain,270,2013-02-22 02:50:00
5:20 AM,44.6,41.0,87,29.68,4.3,West,12.7,-,N/A,Rain,Light Rain,270,2013-02-22 03:20:00
5:50 AM,44.6,41.0,87,29.68,4.3,West,12.7,-,N/A,Rain,Light Rain,270,2013-02-22 03:50:00
6:20 AM,44.6,41.0,87,29.68,4.3,West,10.4,-,N/A,Rain,Light Rain,270,2013-02-22 04:20:00
6:50 AM,44.6,41.0,87,29.68,4.3,West,11.5,-,N/A,Rain,Light Rain,270,2013-02-22 04:50:00
7:20 AM,44.6,41.0,87,29.68,5.0,West,12.7,-,N/A,Rain,Light Rain,260,2013-02-22 05:20:00
7:50 AM,44.6,41.0,87,29.68,5.0,West,12.7,-,N/A,Rain,Light Rain,270,2013-02-22 05:50:00
8:20 AM,44.6,41.0,87,29.68,6.2,West,13.8,-,N/A,,Overcast,270,2013-02-22 06:20:00
8:50 AM,46.4,41.0,81,29.68,6.2,West,15.0,-,N/A,,Overcast,270,2013-02-22 06:50:00
9:20 AM,46.4,41.0,81,29.68,6.2,West,12.7,-,N/A,,Overcast,270,2013-02-22 07:20:00
9:50 AM,46.4,41.0,81,29.68,6.2,West,12.7,-,N/A,,Overcast,270,2013-02-22 07:50:00
10:20 AM,46.4,41.0,81,29.68,6.2,West,15.0,-,N/A,Rain,Light Rain,270,2013-02-22 08:20:00
10:50 AM,48.2,41.0,76,29.68,6.2,West,15.0,-,N/A,,Overcast,270,2013-02-22 08:50:00
11:20 AM,48.2,41.0,76,29.68,6.2,West,13.8,-,N/A,,Overcast,260,2013-02-22 09:20:00
11:50 AM,48.2,41.0,76,29.68,6.2,West,13.8,-,N/A,,Overcast,260,2013-02-22 09:50:00
12:20 PM,48.2,41.0,76,29.68,6.2,West,12.7,-,N/A,,Overcast,270,2013-02-22 10:20:00
12:50 PM,48.2,42.8,82,29.68,6.2,West,10.4,-,N/A,,Overcast,270,2013-02-22 10:50:00
1:20 PM,48.2,42.8,82,29.68,6.2,West,12.7,-,N/A,,Overcast,270,2013-02-22 11:20:00
1:50 PM,48.2,42.8,82,29.68,6.2,West,11.5,-,N/A,,Overcast,270,2013-02-22 11:50:00
2:20 PM,50.0,42.8,76,29.65,6.2,West,9.2,-,N/A,,Overcast,260,2013-02-22 12:20:00
2:50 PM,50.0,42.8,76,29.65,6.2,West,10.4,-,N/A,,Overcast,270,2013-02-22 12:50:00
3:20 PM,50.0,42.8,76,29.65,6.2,West,10.4,-,N/A,,Overcast,270,2013-02-22 13:20:00
3:50 PM,50.0,42.8,76,29.65,6.2,West,9.2,-,N/A,,Overcast,270,2013-02-22 13:50:00
4:20 PM,50.0,42.8,76,29.65,6.2,West,8.1,-,N/A,,Overcast,270,2013-02-22 14:20:00
4:50 PM,50.0,42.8,76,29.65,6.2,West,6.9,-,N/A,,Overcast,280,2013-02-22 14:50:00
5:20 PM,50.0,42.8,76,29.65,6.2,West,4.6,-,N/A,Rain,Light Rain,280,2013-02-22 15:20:00
5:50 PM,50.0,44.6,82,29.68,6.2,West,4.6,-,N/A,Rain,Light Rain,280,2013-02-22 15:50:00
6:20 PM,48.2,44.6,87,29.68,6.2,West,4.6,-,N/A,,Overcast,260,2013-02-22 16:20:00
6:50 PM,48.2,44.6,87,29.71,6.2,West,4.6,-,N/A,,Overcast,260,2013-02-22 16:50:00
7:20 PM,48.2,44.6,87,29.71,6.2,WSW,4.6,-,N/A,,Overcast,250,2013-02-22 17:20:00
7:50 PM,48.2,44.6,87,29.71,6.2,Calm,Calm,-,N/A,,Overcast,0,2013-02-22 17:50:00
8:50 PM,48.2,44.6,87,29.74,6.2,West,4.6,-,N/A,,Overcast,270,2013-02-22 18:50:00
9:50 PM,46.4,42.8,87,29.74,6.2,Calm,Calm,-,N/A,,Overcast,0,2013-02-22 19:50:00
10:50 PM,46.4,42.8,87,29.74,6.2,Calm,Calm,-,N/A,,Overcast,0,2013-02-22 20:50:00
11:50 PM,46.4,42.8,87,29.77,6.2,Calm,Calm,-,N/A,,Overcast,0,2013-02-22 21:50:00